When you browse on this site, cookies collect data to enhance your experience and personalize the content and advertising you see.
Visit our Privacy Policy to learn more. By continuing to use the site, you agree to this use of cookies and data.
  • en France
  • Liste des pays
  • À 7 jours
  • Température de l'eau
  • Carte satellitaire
  • Carte météo
  • Widgets météo
  • user-avatar
    Se connecter

    Météo par heure à Glebovka

    Ce jour, 23 Février, Samedi

    Heure Température Précipitation Vent Pression Humidité
    00:00 -12°C° 0 mm 4 m/s 751 mmHg 91%
    01:00 -14°C° 0 mm 4 m/s 752 mmHg 91%
    02:00 -14°C° 0 mm 4 m/s 753 mmHg 92%
    03:00 -15°C° 0 mm 4 m/s 754 mmHg 92%
    04:00 -16°C° 0 mm 4 m/s 754 mmHg 93%
    05:00 -16°C° 0 mm 4 m/s 755 mmHg 93%
    06:00 -17°C° 0 mm 4 m/s 755 mmHg 93%
    07:00 -18°C° 0 mm 4 m/s 756 mmHg 93%
    08:00 -17°C° 0 mm 3 m/s 756 mmHg 93%
    09:00 -17°C° 0 mm 3 m/s 757 mmHg 94%
    10:00 -16°C° 0 mm 3 m/s 757 mmHg 92%
    11:00 -15°C° 0 mm 3 m/s 757 mmHg 91%
    12:00 -16°C° 0 mm 4 m/s 758 mmHg 89%
    13:00 -14°C° 0 mm 3 m/s 758 mmHg 89%
    14:00 -13°C° 0 mm 3 m/s 758 mmHg 89%
    15:00 -13°C° 0 mm 3 m/s 758 mmHg 89%
    16:00 -14°C° 0 mm 3 m/s 757 mmHg 90%
    17:00 -15°C° 0 mm 3 m/s 757 mmHg 92%
    18:00 -15°C° 0 mm 2 m/s 757 mmHg 93%
    19:00 -16°C° 0 mm 2 m/s 757 mmHg 93%
    20:00 -16°C° 0 mm 2 m/s 757 mmHg 93%
    21:00 -17°C° 0 mm 2 m/s 757 mmHg 93%
    22:00 -17°C° 0 mm 2 m/s 757 mmHg 92%
    23:00 -17°C° 0 mm 2 m/s 757 mmHg 91%

    Demain, 24 Février, Dimanche

    Heure Température Précipitation Vent Pression Humidité
    00:00 -17°C° 0 mm 2 m/s 757 mmHg 90%
    01:00 -17°C° 0 mm 2 m/s 756 mmHg 90%
    02:00 -18°C° 0 mm 3 m/s 756 mmHg 90%
    03:00 -18°C° 0 mm 3 m/s 756 mmHg 90%
    04:00 -18°C° 0 mm 3 m/s 756 mmHg 90%
    05:00 -18°C° 0 mm 3 m/s 756 mmHg 90%
    06:00 -17°C° 0 mm 3 m/s 755 mmHg 90%
    07:00 -17°C° 0 mm 3 m/s 755 mmHg 91%
    08:00 -16°C° 0 mm 3 m/s 755 mmHg 92%
    09:00 -15°C° 0 mm 3 m/s 755 mmHg 94%
    10:00 -15°C° 0 mm 4 m/s 755 mmHg 94%
    11:00 -12°C° 0 mm 4 m/s 755 mmHg 95%
    12:00 -11°C° 0 mm 4 m/s 754 mmHg 95%
    13:00 -10°C° 0 mm 4 m/s 754 mmHg 95%
    14:00 -9°C° 0 mm 4 m/s 754 mmHg 94%
    15:00 -9°C° 0 mm 4 m/s 754 mmHg 93%
    16:00 -7°C° 0 mm 3 m/s 753 mmHg 94%
    17:00 -7°C° 0 mm 3 m/s 753 mmHg 94%
    18:00 -7°C° 0 mm 3 m/s 753 mmHg 95%
    19:00 -6°C° 0 mm 3 m/s 753 mmHg 95%
    20:00 -6°C° 0 mm 3 m/s 752 mmHg 95%
    21:00 -6°C° 0 mm 3 m/s 752 mmHg 96%
    22:00 -5°C° 0.1 mm 3 m/s 751 mmHg 96%
    23:00 -5°C° 0.1 mm 4 m/s 751 mmHg 96%

    Après-demain, 25 Février, Lundi

    Heure Température Précipitation Vent Pression Humidité
    00:00 -5°C° 0.1 mm 4 m/s 751 mmHg 96%
    01:00 -4°C° 0.1 mm 4 m/s 750 mmHg 96%
    02:00 -4°C° 0.1 mm 4 m/s 749 mmHg 96%
    03:00 -3°C° 0.1 mm 4 m/s 749 mmHg 96%
    04:00 -3°C° 0 mm 4 m/s 748 mmHg 96%
    05:00 -2°C° 0 mm 5 m/s 747 mmHg 96%
    06:00 -2°C° 0 mm 5 m/s 746 mmHg 95%
    07:00 -2°C° 0.4 mm 5 m/s 746 mmHg 95%
    08:00 -2°C° 0.4 mm 5 m/s 745 mmHg 94%
    09:00 -2°C° 0.4 mm 5 m/s 744 mmHg 93%
    10:00 -2°C° 0.4 mm 5 m/s 744 mmHg 95%
    11:00 -2°C° 0.4 mm 5 m/s 743 mmHg 96%
    12:00 -1°C° 0.4 mm 5 m/s 742 mmHg 97%
    13:00 -1°C° 0.4 mm 5 m/s 742 mmHg 98%
    14:00 -1°C° 0.4 mm 5 m/s 741 mmHg 98%
    15:00 -1°C° 0.4 mm 5 m/s 741 mmHg 99%
    16:00 -2°C° 0.2 mm 5 m/s 740 mmHg 96%
    17:00 -2°C° 0.2 mm 5 m/s 740 mmHg 93%
    18:00 -2°C° 0.2 mm 5 m/s 740 mmHg 90%
    19:00 -2°C° 0 mm 4 m/s 740 mmHg 91%
    20:00 -2°C° 0 mm 4 m/s 740 mmHg 93%
    21:00 -2°C° 0 mm 4 m/s 740 mmHg 94%
    22:00 -2°C° 0.1 mm 4 m/s 739 mmHg 94%
    23:00 -3°C° 0.1 mm 4 m/s 739 mmHg 95%

    26 Février, Mardi

    Heure Température Précipitation Vent Pression Humidité
    00:00 -3°C° 0.1 mm 4 m/s 739 mmHg 95%
    01:00 -3°C° 0.1 mm 4 m/s 739 mmHg 95%
    02:00 -2°C° 0.1 mm 3 m/s 738 mmHg 95%
    03:00 -2°C° 0.1 mm 3 m/s 738 mmHg 96%
    04:00 -2°C° 0.1 mm 3 m/s 738 mmHg 96%
    05:00 -2°C° 0.1 mm 3 m/s 738 mmHg 96%
    06:00 -2°C° 0.1 mm 3 m/s 737 mmHg 96%
    07:00 -2°C° 0.1 mm 3 m/s 737 mmHg 95%
    08:00 -3°C° 0.1 mm 4 m/s 737 mmHg 95%
    09:00 -3°C° 0.1 mm 4 m/s 737 mmHg 95%
    10:00 -3°C° 0.1 mm 4 m/s 737 mmHg 95%
    11:00 -2°C° 0.1 mm 4 m/s 737 mmHg 95%
    12:00 -2°C° 0.1 mm 4 m/s 737 mmHg 96%
    13:00 -2°C° 0.1 mm 4 m/s 737 mmHg 95%
    14:00 -2°C° 0.1 mm 4 m/s 737 mmHg 95%
    15:00 -2°C° 0.1 mm 4 m/s 737 mmHg 94%
    16:00 -2°C° 0.1 mm 4 m/s 737 mmHg 94%
    17:00 -3°C° 0.1 mm 4 m/s 737 mmHg 93%
    18:00 -4°C° 0.1 mm 3 m/s 737 mmHg 92%
    19:00 -4°C° 0.2 mm 3 m/s 737 mmHg 93%
    20:00 -4°C° 0.2 mm 4 m/s 738 mmHg 94%
    21:00 -3°C° 0.2 mm 4 m/s 738 mmHg 95%
    22:00 -3°C° 0.1 mm 4 m/s 738 mmHg 94%
    23:00 -3°C° 0.1 mm 4 m/s 738 mmHg 94%

    27 Février, Mercredi

    Heure Température Précipitation Vent Pression Humidité
    00:00 -3°C° 0.1 mm 4 m/s 739 mmHg 94%
    01:00 -4°C° 0.1 mm 5 m/s 739 mmHg 93%
    02:00 -4°C° 0.1 mm 5 m/s 739 mmHg 93%
    03:00 -4°C° 0.1 mm 5 m/s 740 mmHg 93%
    04:00 -4°C° 0.1 mm 5 m/s 740 mmHg 93%
    05:00 -4°C° 0.1 mm 5 m/s 740 mmHg 93%
    06:00 -4°C° 0.1 mm 5 m/s 740 mmHg 93%
    07:00 -5°C° 0.1 mm 5 m/s 741 mmHg 93%
    08:00 -5°C° 0.1 mm 5 m/s 741 mmHg 92%
    09:00 -5°C° 0.1 mm 5 m/s 741 mmHg 92%
    10:00 -5°C° 0.1 mm 5 m/s 741 mmHg 91%
    11:00 -6°C° 0.1 mm 5 m/s 741 mmHg 91%
    12:00 -6°C° 0.1 mm 5 m/s 741 mmHg 90%
    13:00 -6°C° 0 mm 5 m/s 741 mmHg 90%
    14:00 -5°C° 0 mm 4 m/s 740 mmHg 90%
    15:00 -5°C° 0 mm 4 m/s 740 mmHg 90%
    16:00 -7°C° 0 mm 4 m/s 740 mmHg 91%
    17:00 -7°C° 0 mm 4 m/s 740 mmHg 91%
    18:00 -7°C° 0 mm 3 m/s 740 mmHg 92%
    19:00 -8°C° 0 mm 3 m/s 740 mmHg 92%
    20:00 -8°C° 0 mm 3 m/s 740 mmHg 93%
    21:00 -9°C° 0 mm 3 m/s 740 mmHg 94%
    22:00 -10°C° 0 mm 3 m/s 739 mmHg 94%
    23:00 -13°C° 0 mm 3 m/s 739 mmHg 95%

    28 Février, Jeudi

    Heure Température Précipitation Vent Pression Humidité
    00:00 -14°C° 0 mm 3 m/s 739 mmHg 96%
    01:00 -14°C° 0 mm 2 m/s 739 mmHg 96%
    02:00 -14°C° 0 mm 2 m/s 738 mmHg 96%
    03:00 -15°C° 0 mm 2 m/s 738 mmHg 96%
    04:00 -15°C° 0 mm 2 m/s 738 mmHg 95%
    05:00 -15°C° 0 mm 2 m/s 738 mmHg 95%
    06:00 -16°C° 0 mm 2 m/s 737 mmHg 95%
    07:00 -15°C° 0 mm 2 m/s 737 mmHg 95%
    08:00 -14°C° 0 mm 2 m/s 737 mmHg 96%
    09:00 -13°C° 0 mm 2 m/s 737 mmHg 96%
    10:00 -12°C° 0 mm 3 m/s 736 mmHg 96%
    11:00 -9°C° 0 mm 3 m/s 736 mmHg 96%
    12:00 -8°C° 0 mm 3 m/s 735 mmHg 96%
    13:00 -7°C° 0 mm 4 m/s 735 mmHg 95%
    14:00 -5°C° 0 mm 4 m/s 734 mmHg 94%
    15:00 -4°C° 0 mm 4 m/s 733 mmHg 93%
    16:00 -4°C° 0 mm 4 m/s 733 mmHg 93%
    17:00 -4°C° 0 mm 4 m/s 732 mmHg 93%
    18:00 -4°C° 0 mm 4 m/s 732 mmHg 94%
    19:00 -5°C° 0.1 mm 4 m/s 731 mmHg 94%
    20:00 -5°C° 0.1 mm 4 m/s 731 mmHg 94%
    21:00 -6°C° 0.1 mm 5 m/s 730 mmHg 95%
    22:00 -6°C° 0.3 mm 5 m/s 730 mmHg 95%
    23:00 -5°C° 0.3 mm 5 m/s 729 mmHg 95%
    Voir plus